Location: San Pelegr�n
(42.1868°N, 0.0079°E)
Time: 03:49:24
(UTC+00:00)

Cosmos 2251 Rocket - Pass Details

Date: 24 January 2020
Orbit: 765 x 792 km, 74.0° (Epoch: 18 February)

Event Time Altitude Azimuth Distance (km) Brightness Sun altitude
Rises 17:43:22 0° 349° (N) 3,261 6.7 -7.7°
Reaches altitude 10° 17:46:05 10° 1° (N) 2,334 5.8 -8.2°
Maximum altitude 17:50:37 28° 60° (ENE) 1,430 4.4 -9.0°
Drops below altitude 10° 17:55:10 10° 119° (ESE) 2,338 5.6 -9.8°
Sets 17:57:52 0° 131° (SE) 3,266 6.4 -10.2°
